Voltar ao catálogo

FENGYUN 1C DEB

AtivoSSO
NORAD 30606·DEBRIS·🇨🇳 China

Lançado May 10, 1999 de Taiyuan Satellite Launch Center

Loading…

Próximas Passagens (próximas 24 horas)

TLE

AtualizadoSource: Space-Track

Época: Sep 14, 2026, 11:36 UTC

1 30606U 99025AMM 26257.48344552  .00003221  00000-0  50775-3 0  9992
2 30606  98.0921 265.8415 0206678 356.2573 158.0072 14.59830763 32630

Acompanhe FENGYUN 1C DEB em tempo real com AllMySat

Download on the App Store